User: anonymous   Login
Location: ??
(35.5052°N, 139.7262°E)
Time: 22:33:39
(UTC+00:00)
Language:

ASTEX 1 - Orbit

View from above orbital plane
View from above orbital plane
View from above satellite
View from above satellite

Ground track
Ground track

The orbit data is extracted from the following two-line orbital elements,

1  5560U 71089A   21266.76536718  .00000129  00000-0  34853-4 0  9990
2  5560  92.7220 346.2358 0016862 163.0097 197.1675 14.48153455626819
Epoch (UTC): 23 September 2021 18:22:07
Eccentricity: 0.0016862
inclination: 92.7220°
perigee height: 720 km
apogee height: 743 km
right ascension of ascending node: 346.2358°
argument of perigee: 163.0097°
revolutions per day: 14.48153455
mean anomaly at epoch: 197.1675°
orbit number at epoch: 62681

The dashed part of the orbit path shows where the satellite is in the earth's shadow,  

DLR